Skip Navigation Linkswww.weather.gov 
NOAA logo - Click to go to the NOAA homepage National Weather Service   NWS logo - Click to go to the NWS homepage    
Western Region Headquarters
navigation bar decoration      
Regional Divisions
 
 
 
 
 
USA.gov is the U.S. government's official web portal to all federal, state and local government web resources and services.
spacer
Printer Friendly  |   Go Back  |  Version: Current   1   2   3   4   5   6   7   8   9   10   |  Font:  A A A  |  

HOURLY WEATHER ROUNDUP
 
 ASUS45 KREV 011210
RWRNV
NEVADA REGIONAL WEATHER ROUNDUP
NATIONAL WEATHER SERVICE RENO NV
400 AM PST SUN MAR 01 2015

NOTE: "FAIR" INDICATES FEW OR NO CLOUDS BELOW 12,000 FEET WITH NO
SIGNIFICANT WEATHER AND/OR OBSTRUCTIONS TO VISIBILITY.

NVZ001-003-004-011300-
WESTERN NEVADA

CITY SKY/WX TMP DP RH WIND PRES REMARKS
RENO CLOUDY 37 30 75 N9 29.98R
6HR MIN TEMP: 37; 6HR MAX TEMP: 38; 6HR PCP: TRACE;

CARSON CITY CLOUDY 36 30 80 N3 29.97R
MINDEN CLOUDY 32 32 100 NW8 29.97
SLIDE MTN N/A 18 16 93 SE7 N/A
PYRAMID LAKE N/A 37 N/A N/A NW8 N/A
FALLON CLOUDY 35 31 85 NE3 29.97R
6HR MIN TEMP: 33; 6HR MAX TEMP: 35; 6HR PCP: 0.01;

LOVELOCK PTCLDY 34 25 69 NE10 29.98R
6HR MIN TEMP: 34; 6HR MAX TEMP: 39;

HAWTHORNE CLOUDY 37 36 93 NW7 29.95S
$$

NVZ002-CAZ072-073-011300-
NORTHERN AND CENTRAL SIERRA

CITY SKY/WX TMP DP RH WIND PRES REMARKS
S. LAKE TAHOE LGT SNOW 31 24 75 N8G16 29.91R
6HR MIN TEMP: 31; 6HR MAX TEMP: 33; 6HR PCP: 0.04;

TRUCKEE CLOUDY 30 27 86 CALM 29.94S
SQUAW VLY 8000 N/A 23 23 100 CALM N/A
SUSANVILLE CLOUDY 36 27 69 E5 30.01S
BLUE CANYON CLEAR 33 24 69 NE13G25 29.90R
MAMMOTH LAKES CLOUDY 19 18 93 CALM 29.89S
BRIDGEPORT FLURRIES 25 21 85 CALM 29.87S
$$

NVZ030-031-036-011300-
NORTHERN NEVADA

CITY SKY/WX TMP DP RH WIND PRES REMARKS
ELKO CLOUDY 28 21 75 W3 29.99R
6HR MIN TEMP: 28; 6HR MAX TEMP: 32;

WINNEMUCCA CLEAR 30 23 75 N15 30.01S
6HR MIN TEMP: 30; 6HR MAX TEMP: 35;

WENDOVER CLOUDY 36 18 48 NE13 30.02R
$$

NVZ035-037-011300-
CENTRAL NEVADA

CITY SKY/WX TMP DP RH WIND PRES REMARKS
ELY LGT SNOW 27 26 96 N7 29.96R FOG
6HR MIN TEMP: 27; 6HR MAX TEMP: 29; 6HR PCP: 0.03;

EUREKA N/A 29 25 85 N6 29.95R
6HR MIN TEMP: 28; 6HR MAX TEMP: 31;

$$

NVZ013-014-011300-
SOUTH CENTRAL NEVADA

CITY SKY/WX TMP DP RH WIND PRES REMARKS
TONOPAH PTCLDY 29 24 82 N8 29.92S
6HR MIN TEMP: 26; 6HR MAX TEMP: 30;

$$

NVZ017-020-022-011300-
SOUTHERN NEVADA

CITY SKY/WX TMP DP RH WIND PRES REMARKS
LAS VEGAS MOCLDY 50 33 52 S5 29.87R
6HR MIN TEMP: 50; 6HR MAX TEMP: 55;

N. LAS VEGAS CLOUDY 47 31 53 NW5 29.90R
6HR MIN TEMP: 47; 6HR MAX TEMP: 52;

NELLIS AFB MOCLDY 50 36 58 CALM 29.91R
6HR MIN TEMP: 49; 6HR MAX TEMP: 52;

HENDERSON CLOUDY 45 34 65 S5 29.92R
6HR MIN TEMP: 45; 6HR MAX TEMP: 50;

MERCURY MOCLDY 40 31 70 E7 29.90S
6HR MIN TEMP: 38; 6HR MAX TEMP: 44;

$$


Webmaster
US Dept of Commerce
National Oceanic and Atmospheric Administration
National Weather Service
Western Region Headquarters
125 South State Street
Salt Lake City, UT 84138-1102

Disclaimer
Information Quality
Credits
Glossary
Organization
Privacy Policy
Freedom of Information Act
About Us
Career Opportunities